Torna al catalogo

ONEWEB-0054

AttivoComunicazioniPO
NORAD 45158·PAYLOAD·🇬🇧 United Kingdom

Lanciato Feb 6, 2020 da Baikonur Cosmodrome

Loading…

Prossimi Passaggi (prossime 24 ore)

TLE

AggiornatoSource: CelesTrak SupGP

Epoca: Sep 14, 2026, 23:29 UTC

1 45158C 20008AD  26257.97898563 -.00001530  00000+0 -43898-2 0  2571
2 45158  87.8895  18.3920 0001706 104.2958   5.6074 13.10369911    13

Traccia ONEWEB-0054 in tempo reale con AllMySat

Download on the App Store